Location: Ellingshausen
(50.5460°N, 10.4723°E)
Time: 12:50:10
(UTC+00:00)

Cosmos 676 Rocket - Pass Details

Date: 15 April 2026
Orbit: 750 x 779 km, 74.0° (Epoch: 19 May)

Event Time Altitude Azimuth Distance (km) Brightness Sun altitude
Rises 22:15:02 0° 340° (NNW) 3,271 8.5 -27.9°
Reaches altitude 10° 22:17:43 10° 350° (N) 2,336 7.5 -28.0°
Maximum altitude 22:22:24 31° 52° (NE) 1,345 5.4 -28.2°
Enters shadow 22:23:06 30° 67° (ENE) 1,373 5.3 -28.3°
